Location: Yellowknife
(62.4500°N, 114.3500°W)
Time: 02:40:51
(UTC-06:00)

Amateur Radio Satellites - All Passes

Search period start: 25 June 2016 02:10
Search period end: 26 June 2016 02:10
Location: Yellowknife, 62.4500°N, 114.3500°W

Satellite Date Start Highest point End Downlink Frequencies (MHz)
Time Altitude Azimuth
ITUPSAT 1 25 Jun 02:11:13 02:16:00 66° 64° (ENE) 02:20:49 437.325
BEESAT 25 Jun 02:12:59 02:17:45 69° 65° (ENE) 02:22:33 436.000
CUBEBUG 1 25 Jun 02:14:15 02:15:47 12° 281° (W) 02:17:18 437.445
Cosmos 2504 25 Jun 02:20:35 02:29:33 89° 255° (WSW) 02:38:25 435.465 / 435.565
NANOSAT C BR1 25 Jun 02:21:24 02:25:34 57° 295° (WNW) 02:29:44 145.865
BUGSAT 1 25 Jun 02:21:48 02:25:53 85° 110° (ESE) 02:29:59 437.445
QB50P1 25 Jun 02:21:58 02:26:07 55° 296° (WNW) 02:30:17 145.935-145.965
AIST 1 25 Jun 02:22:50 02:23:19 10° 34° (NE) 02:23:46
POPSAT HIP 1 25 Jun 02:24:46 02:28:55 53° 296° (WNW) 02:33:04 437.405
YUBILEINY 25 Jun 02:28:05 02:36:17 46° 275° (W) 02:44:30 435.215
GONETS M04 25 Jun 02:32:03 02:38:27 22° 14° (NNE) 02:44:52
KKS-1 25 Jun 02:32:23 02:36:05 27° 50° (NE) 02:39:48 437.445
QB50P2 25 Jun 02:36:06 02:40:08 43° 300° (WNW) 02:44:11 145.880/145.840
POLYITAN 1 25 Jun 02:38:43 02:42:45 43° 300° (WNW) 02:46:48 437.675
DUCHIFAT 1 25 Jun 02:44:09 02:48:08 42° 300° (WNW) 02:52:08 145.980
TIGRISAT 25 Jun 02:48:35 02:51:44 19° 317° (NW) 02:54:56 435.000
AO-7 25 Jun 02:50:40 02:52:53 11° 65° (ENE) 02:55:06 29.400- 29.500
UNISAT 6 25 Jun 02:52:22 02:55:23 18° 318° (NW) 02:58:28 437.425
CUBESAT XI-V 25 Jun 03:10:34 03:13:18 15° 37° (NE) 03:16:01 437.345
Gurwin Techsat 1B 25 Jun 03:12:30 03:17:19 33° 93° (E) 03:22:07 435.225
STARS 25 Jun 03:15:29 03:19:21 32° 53° (NE) 03:23:15 437.465
PCSat 25 Jun 03:19:46 03:22:31 14° 106° (ESE) 03:25:18 145.827
SO-50 25 Jun 03:20:10 03:22:00 12° 247° (WSW) 03:23:49 436.795
Cosmos 2499 25 Jun 03:20:30 03:27:19 24° 20° (NNE) 03:34:07 435.465 / 435.565
TISAT 1 25 Jun 03:22:03 03:24:28 15° 276° (W) 03:26:53 437.305
SWISSCUBE 25 Jun 03:25:24 03:29:57 41° 262° (W) 03:34:32 437.505
Oscar 19 25 Jun 03:28:25 03:33:34 67° 105° (ESE) 03:38:40 437.125/150
MOZHAYETS 4 25 Jun 03:28:35 03:33:05 50° 61° (ENE) 03:37:36
ANTELSAT 25 Jun 03:33:00 03:34:52 12° 327° (NNW) 03:36:46 437.575/2403.000
JAS-2 25 Jun 03:34:05 03:40:26 69° 297° (WNW) 03:46:02 435.910
ITAMSAT 1 25 Jun 03:42:02 03:46:23 25° 89° (E) 03:50:43 435.822/435.867
AO-85 25 Jun 03:47:02 03:52:12 67° 357° (N) 03:56:58 145.980
Cosmos 2491 25 Jun 03:49:22 03:58:00 59° 298° (WNW) 04:06:40 435.465 / 435.565
ITUPSAT 1 25 Jun 03:49:56 03:54:14 32° 266° (W) 03:58:34 437.325
BEESAT 25 Jun 03:51:44 03:55:58 30° 267° (W) 04:00:13 436.000
BUGSAT 1 25 Jun 03:57:40 04:00:54 23° 309° (NW) 04:04:08 437.445
NANOSAT C BR1 25 Jun 03:57:51 04:00:37 17° 317° (NW) 04:03:22 145.865
QB50P1 25 Jun 03:58:29 04:01:11 17° 318° (NW) 04:03:54 145.935-145.965
AIST 1 25 Jun 03:58:34 04:02:24 30° 58° (ENE) 04:06:11
O/OREOS (USA 219) 25 Jun 04:00:38 04:03:33 17° 103° (ESE) 04:06:28 437.305
POPSAT HIP 1 25 Jun 04:01:20 04:03:59 16° 318° (NW) 04:06:38 437.405
KKS-1 25 Jun 04:07:52 04:12:18 83° 252° (WSW) 04:16:47 437.445
QB50P2 25 Jun 04:12:49 04:15:05 14° 321° (NW) 04:17:22 145.880/145.840
Cosmos 2504 25 Jun 04:14:22 04:22:09 36° 281° (WNW) 04:29:52 435.465 / 435.565
POLYITAN 1 25 Jun 04:15:27 04:17:42 14° 321° (NW) 04:19:57 437.675
DUCHIFAT 1 25 Jun 04:20:48 04:22:59 14° 322° (NW) 04:25:09 145.980
YUBILEINY 25 Jun 04:25:53 04:30:50 17° 301° (WNW) 04:35:47 435.215
BEESAT 3 25 Jun 04:30:21 04:32:13 13° 118° (ESE) 04:34:06 437.485
GONETS M04 25 Jun 04:30:33 04:38:29 37° 45° (NE) 04:46:25
STRAND 1 25 Jun 04:31:21 04:34:13 15° 28° (NNE) 04:37:05 437.568
AO-7 25 Jun 04:41:08 04:48:43 35° 92° (E) 04:56:15 29.400- 29.500
CUBESAT XI-V 25 Jun 04:45:17 04:49:44 43° 59° (ENE) 04:54:11 437.345
STARS 25 Jun 04:51:11 04:55:32 65° 255° (WSW) 04:59:54 437.465
Gurwin Techsat 1B 25 Jun 04:52:24 04:57:45 71° 295° (WNW) 05:03:03 435.225
PCSat 25 Jun 04:59:35 05:04:45 46° 129° (SE) 05:09:56 145.827
BEESAT 2 25 Jun 04:59:49 05:02:00 14° 119° (ESE) 05:04:12 435.950
MOZHAYETS 4 25 Jun 05:06:02 05:10:24 40° 263° (W) 05:14:50
Oscar 19 25 Jun 05:08:02 05:12:43 37° 307° (NW) 05:17:23 437.125/150
SWISSCUBE 25 Jun 05:08:37 05:09:07 10° 284° (WNW) 05:09:37 437.505
HORYU 2 25 Jun 05:14:20 05:16:54 15° 83° (E) 05:19:27 437.375
Cosmos 2499 25 Jun 05:14:59 05:23:21 41° 49° (NE) 05:31:33 435.465 / 435.565
JAS-2 25 Jun 05:19:22 05:24:39 27° 322° (NW) 05:29:27 435.910
ITAMSAT 1 25 Jun 05:21:15 05:26:33 89° 292° (WNW) 05:31:49 435.822/435.867
AO-85 25 Jun 05:27:58 05:33:02 83° 20° (NNE) 05:37:39 145.980
AIST 1 25 Jun 05:36:06 05:40:20 60° 261° (W) 05:44:32
O/OREOS (USA 219) 25 Jun 05:37:46 05:42:14 67° 125° (SE) 05:46:43 437.305
KKS-1 25 Jun 05:46:23 05:49:35 19° 273° (W) 05:52:47 437.445
Cosmos 2491 25 Jun 05:49:41 05:57:01 28° 327° (NNW) 06:04:21 435.465 / 435.565
BEESAT 3 25 Jun 06:05:18 06:09:05 45° 140° (SE) 06:12:54 437.485
STRAND 1 25 Jun 06:07:33 06:12:11 35° 52° (NE) 06:16:52 437.568
Cosmos 2504 25 Jun 06:09:19 06:12:53 13° 308° (NW) 06:16:28 435.465 / 435.565
NOAA 18 25 Jun 06:20:35 06:23:38 15° 79° (E) 06:26:42 137.9125
CUBESAT XI-V 25 Jun 06:22:34 06:27:09 49° 261° (W) 06:31:44 437.345
PRISM 25 Jun 06:23:37 06:25:44 14° 38° (NE) 06:27:52 437.425
GONETS M04 25 Jun 06:27:55 06:36:41 83° 72° (ENE) 06:45:28
STARS 25 Jun 06:30:16 06:32:47 15° 277° (W) 06:35:18 437.465
Gurwin Techsat 1B 25 Jun 06:32:47 06:37:03 25° 318° (NW) 06:41:18 435.225
AO-7 25 Jun 06:34:07 06:42:34 88° 115° (ESE) 06:51:00 29.400- 29.500
NOAA 15 25 Jun 06:34:48 06:38:40 20° 85° (E) 06:42:30 137.62
BEESAT 2 25 Jun 06:35:13 06:39:04 49° 141° (SE) 06:42:57 435.950
PCSat 25 Jun 06:42:33 06:48:01 77° 332° (NNW) 06:53:30 145.827
AIST 2 25 Jun 06:47:08 06:49:01 13° 117° (ESE) 06:50:54 435.215
Oscar 19 25 Jun 06:47:57 06:50:53 15° 330° (NNW) 06:53:48 437.125/150
HORYU 2 25 Jun 06:49:54 06:54:23 62° 105° (ESE) 06:58:51 437.375
LilacSat-2 25 Jun 06:54:00 06:56:31 16° 86° (E) 06:59:03 437.200
Cubesat XI-IV 25 Jun 06:57:31 07:01:46 23° 86° (E) 07:05:59 437.490
ITAMSAT 1 25 Jun 07:01:06 07:05:35 29° 313° (NW) 07:10:04 435.822/435.867
JAS-2 25 Jun 07:04:05 07:07:53 16° 348° (NNW) 07:11:27 435.910
Cosmos 2499 25 Jun 07:08:36 07:17:36 89° 257° (WSW) 07:26:19 435.465 / 435.565
AO-85 25 Jun 07:08:42 07:13:20 43° 224° (SW) 07:17:34 145.980
DANDE 25 Jun 07:10:32 07:14:22 14° 67° (ENE) 07:18:01 436.750
BRITE-PL 25 Jun 07:13:12 07:16:59 29° 92° (E) 07:20:39 437.365/2234.400
AIST 1 25 Jun 07:15:06 07:17:06 13° 283° (WNW) 07:19:05
O/OREOS (USA 219) 25 Jun 07:17:40 07:21:57 41° 328° (NNW) 07:26:13 437.305
CUSAT 1 25 Jun 07:22:03 07:27:11 21° 81° (E) 07:31:43 437.405
CUTE-I 25 Jun 07:32:56 07:37:55 36° 95° (E) 07:42:52 437.470
TIGRISAT 25 Jun 07:35:59 07:36:30 10° 27° (NNE) 07:37:01 435.000
UNISAT 6 25 Jun 07:39:08 07:40:12 11° 29° (NNE) 07:41:17 437.425
BEESAT 3 25 Jun 07:42:44 07:46:41 75° 341° (NNW) 07:50:41 437.485
STRAND 1 25 Jun 07:45:59 07:51:08 72° 254° (WSW) 07:56:21 437.568
DOVE 4 25 Jun 07:48:57 07:51:59 19° 87° (E) 07:55:02 437.250
Cosmos 2491 25 Jun 07:51:20 07:57:33 21° 359° (N) 08:03:46 435.465 / 435.565
PRISM 25 Jun 07:56:16 08:00:12 42° 60° (ENE) 08:04:08 437.425
NOAA 18 25 Jun 08:00:11 08:05:38 52° 102° (ESE) 08:11:03 137.9125
CANX-2 25 Jun 08:00:33 08:01:30 11° 77° (ENE) 08:02:26 2200.000
CUBESAT XI-V 25 Jun 08:03:52 08:05:43 12° 283° (WNW) 08:07:33 437.345
GOMX 1 25 Jun 08:06:37 08:10:35 40° 98° (E) 08:14:32 467.674
BEESAT 2 25 Jun 08:12:52 08:16:52 73° 342° (NNW) 08:20:54 435.950
HO-68 25 Jun 08:12:55 08:18:05 20° 80° (E) 08:23:13 435.675
Gurwin Techsat 1B 25 Jun 08:13:15 08:15:28 13° 341° (NNW) 08:17:40 435.225
NOAA 15 25 Jun 08:14:04 08:19:24 74° 108° (ESE) 08:24:39 137.62
ANTELSAT 25 Jun 08:17:04 08:19:37 15° 38° (NE) 08:22:12 437.575/2403.000
CUTE 1.7 + AOD 2 25 Jun 08:20:22 08:22:34 14° 81° (E) 08:24:45 437.475
AIST 2 25 Jun 08:22:41 08:26:37 44° 138° (SE) 08:30:35 435.215
GONETS M04 25 Jun 08:25:07 08:32:54 39° 279° (W) 08:40:43
PCSat 25 Jun 08:26:38 08:31:59 53° 357° (N) 08:37:20 145.827
HORYU 2 25 Jun 08:26:45 08:30:47 34° 306° (NW) 08:34:50 437.375
AO-7 25 Jun 08:27:05 08:34:52 45° 322° (NW) 08:42:40 29.400- 29.500
LilacSat-2 25 Jun 08:27:34 08:31:27 83° 104° (ESE) 08:35:21 437.200
SEEDS 25 Jun 08:31:34 08:33:35 13° 80° (E) 08:35:36 437.485
Cubesat XI-IV 25 Jun 08:37:14 08:42:41 81° 109° (ESE) 08:48:06 437.490
ITAMSAT 1 25 Jun 08:41:07 08:43:42 14° 337° (NNW) 08:46:17 435.822/435.867
JAS-2 25 Jun 08:46:45 08:50:45 17° 14° (NNE) 08:54:32 435.910
DANDE 25 Jun 08:47:59 08:55:32 40° 89° (E) 09:02:19 436.750
AO-85 25 Jun 08:50:30 08:52:40 13° 247° (WSW) 08:54:45 145.980
BRITE-PL 25 Jun 08:51:37 08:55:53 58° 295° (WNW) 08:59:58 437.365/2234.400
QB50P2 25 Jun 08:56:16 08:57:12 11° 31° (NNE) 08:58:09 145.880/145.840
UWE-3 25 Jun 08:56:35 08:56:44 10° 76° (ENE) 08:56:54 435.000/436.395/437.385
O/OREOS (USA 219) 25 Jun 08:58:38 09:02:23 25° 353° (N) 09:06:08 437.305
POLYITAN 1 25 Jun 08:58:48 08:59:48 11° 32° (NNE) 09:00:49 437.675
CUSAT 1 25 Jun 09:01:04 09:08:29 62° 101° (E) 09:14:32 437.405
Cosmos 2499 25 Jun 09:02:09 09:09:54 36° 282° (WNW) 09:17:30 435.465 / 435.565
DUCHIFAT 1 25 Jun 09:03:53 09:04:46 11° 32° (NNE) 09:05:40 145.980
TIGRISAT 25 Jun 09:08:19 09:11:54 25° 50° (NE) 09:15:34 435.000
UNISAT 6 25 Jun 09:11:59 09:15:41 27° 51° (NE) 09:19:28 437.425
CINEMA 3 25 Jun 09:12:07 09:16:04 33° 95° (E) 09:20:10 145.822/145.860
CUTE-I 25 Jun 09:12:59 09:18:22 66° 297° (WNW) 09:23:42 437.470
BEESAT 3 25 Jun 09:20:45 09:24:42 61° 5° (N) 09:28:39 437.485
AAUSAT CUBESAT 2 25 Jun 09:21:04 09:24:09 19° 87° (E) 09:27:14 437.432
DOVE 4 25 Jun 09:26:08 09:30:20 88° 109° (ESE) 09:34:39 437.250
STRAND 1 25 Jun 09:27:34 09:31:15 19° 276° (W) 09:34:58 437.568
PRISM 25 Jun 09:31:37 09:35:35 42° 260° (W) 09:39:34 437.425
CANX-2 25 Jun 09:34:17 09:38:29 46° 99° (E) 09:42:38 2200.000
CUBEBUG 2 25 Jun 09:34:56 09:38:33 23° 89° (E) 09:42:14 437.445
NOAA 18 25 Jun 09:41:03 09:46:23 49° 304° (WNW) 09:51:42 137.9125
GOMX 1 25 Jun 09:44:51 09:48:49 42° 299° (WNW) 09:52:46 467.674
Cosmos 2491 25 Jun 09:50:53 09:58:09 28° 32° (NNE) 10:05:22 435.465 / 435.565
COMPASS 1 25 Jun 09:50:58 09:54:55 36° 96° (E) 09:58:47 437.405
BEESAT 2 25 Jun 09:51:03 09:55:02 62° 7° (N) 09:59:01 435.950
ANTELSAT 25 Jun 09:51:17 09:55:27 45° 60° (ENE) 09:59:43 437.575/2403.000
Gurwin Techsat 1B 25 Jun 09:52:20 09:53:26 11° 6° (N) 09:54:33 435.225
NOAA 15 25 Jun 09:54:10 09:58:56 35° 309° (NW) 10:03:39 137.62
CUTE 1.7 + AOD 2 25 Jun 09:55:03 09:59:21 60° 103° (ESE) 10:03:36 437.475
HO-68 25 Jun 10:00:13 10:07:23 61° 104° (ESE) 10:14:31 435.675
AIST 2 25 Jun 10:00:49 10:05:00 78° 341° (NNW) 10:09:11 435.215
LilacSat-2 25 Jun 10:02:23 10:05:24 22° 308° (NW) 10:08:27 437.200
Oscar 19 25 Jun 10:03:56 10:05:45 12° 19° (NNE) 10:07:32 437.125/150
HORYU 2 25 Jun 10:04:17 10:06:17 13° 328° (NNW) 10:08:17 437.375
DELFI C3 25 Jun 10:05:06 10:06:57 13° 82° (E) 10:08:48 145.870
SEEDS 25 Jun 10:06:00 10:10:15 57° 102° (ESE) 10:14:27 437.485
M-CUBED/EXP-1 PRIME 25 Jun 10:09:53 10:12:30 19° 99° (E) 10:15:14 437.505
PCSat 25 Jun 10:10:35 10:16:02 66° 22° (NNE) 10:21:28 145.827
BUGSAT 1 25 Jun 10:13:44 10:16:01 15° 42° (NE) 10:18:19 437.445
NANOSAT C BR1 25 Jun 10:13:44 10:17:03 23° 49° (NE) 10:20:23 145.865
QB50P1 25 Jun 10:14:27 10:17:49 24° 50° (NE) 10:21:12 145.935-145.965
POPSAT HIP 1 25 Jun 10:17:14 10:20:38 24° 51° (NE) 10:24:04 437.405
Cubesat XI-IV 25 Jun 10:17:38 10:22:26 33° 311° (NW) 10:27:12 437.490
ZACube-1 25 Jun 10:17:48 10:21:39 27° 91° (E) 10:25:32 437.345
AO-7 25 Jun 10:19:12 10:26:03 30° 348° (NNW) 10:32:54 29.400- 29.500
ITAMSAT 1 25 Jun 10:20:28 10:21:15 10° 1° (N) 10:22:04 435.822/435.867
GONETS M04 25 Jun 10:23:23 10:27:10 14° 306° (NW) 10:30:59
JAS-2 25 Jun 10:28:11 10:34:02 28° 38° (NE) 10:39:23 435.910
QB50P2 25 Jun 10:28:14 10:31:53 29° 54° (NE) 10:35:33 145.880/145.840
HUMSAT D 25 Jun 10:28:55 10:30:53 13° 80° (E) 10:32:51 437.325/437.525
DANDE 25 Jun 10:29:36 10:38:03 84° 289° (WNW) 10:45:26 436.750
UWE-3 25 Jun 10:30:07 10:34:24 42° 98° (E) 10:38:46 435.000/436.395/437.385
POLYITAN 1 25 Jun 10:30:50 10:34:30 29° 54° (NE) 10:38:11 437.675
BRITE-PL 25 Jun 10:30:51 10:33:39 17° 318° (NW) 10:36:22 437.365/2234.400
Oscar 11 25 Jun 10:35:08 10:39:12 36° 96° (E) 10:43:14 145.826/435.025
DUCHIFAT 1 25 Jun 10:35:44 10:39:21 29° 54° (NE) 10:43:00 145.980
FUNcube-1 25 Jun 10:37:24 10:41:31 35° 95° (E) 10:45:42 145.935
O/OREOS (USA 219) 25 Jun 10:39:05 10:43:01 29° 18° (NNE) 10:46:57 437.305
CUSAT 1 25 Jun 10:43:39 10:50:50 50° 300° (WNW) 10:56:40 437.405
TIGRISAT 25 Jun 10:43:51 10:48:12 85° 250° (WSW) 10:52:41 435.000
UNISAT 6 25 Jun 10:47:43 10:52:04 78° 253° (WSW) 10:56:33 437.425
CINEMA 3 25 Jun 10:49:14 10:53:29 56° 295° (WNW) 10:57:54 145.822/145.860
CUTE-I 25 Jun 10:53:28 10:57:42 24° 319° (NW) 11:01:56 437.470
AAUSAT CUBESAT 2 25 Jun 10:56:01 11:00:16 90° 83° (E) 11:04:28 437.432
Cosmos 2499 25 Jun 10:56:52 11:00:21 13° 308° (NW) 11:03:50 435.465 / 435.565
BEESAT 3 25 Jun 10:58:35 11:02:35 81° 205° (SSW) 11:06:33 437.485
DOVE 4 25 Jun 11:04:23 11:07:41 23° 309° (NW) 11:11:03 437.250
AUBIESAT-1 25 Jun 11:07:47 11:11:18 44° 110° (ESE) 11:15:01 437.475
CANX-2 25 Jun 11:10:18 11:14:21 40° 300° (WNW) 11:18:23 2200.000
CUBEBUG 2 25 Jun 11:11:14 11:15:42 82° 290° (WNW) 11:20:19 437.445
NOAA 18 25 Jun 11:22:06 11:26:04 21° 327° (NNW) 11:30:02 137.9125
GOMX 1 25 Jun 11:24:02 11:26:02 13° 322° (NW) 11:28:03 467.674
COMPASS 1 25 Jun 11:26:33 11:30:38 49° 297° (WNW) 11:34:43 437.405
ANTELSAT 25 Jun 11:28:09 11:32:17 41° 262° (W) 11:36:31 437.575/2403.000
Gurwin Techsat 1B 25 Jun 11:28:17 11:31:33 17° 30° (NNE) 11:34:49 435.225
BEESAT 2 25 Jun 11:29:02 11:33:03 77° 209° (SSW) 11:37:04 435.950
CUTE 1.7 + AOD 2 25 Jun 11:31:10 11:35:03 32° 304° (WNW) 11:38:53 437.475
NOAA 15 25 Jun 11:34:28 11:37:29 16° 333° (NNW) 11:40:30 137.62
DELFI C3 25 Jun 11:38:40 11:42:42 60° 103° (ESE) 11:46:40 145.870
Oscar 19 25 Jun 11:39:31 11:43:34 24° 42° (NE) 11:47:36 437.125/150
AIST 2 25 Jun 11:39:39 11:43:48 62° 4° (N) 11:47:57 435.215
RS-15 25 Jun 11:40:14 11:47:03 18° 91° (E) 11:54:00 29.354- 29.394
SEEDS 25 Jun 11:41:58 11:45:49 33° 303° (WNW) 11:49:38 437.485
M-CUBED/EXP-1 PRIME 25 Jun 11:43:57 11:47:31 85° 295° (WNW) 11:51:21 437.505
BUGSAT 1 25 Jun 11:46:46 11:50:39 50° 63° (ENE) 11:54:35 437.445
NANOSAT C BR1 25 Jun 11:48:09 11:52:22 89° 62° (ENE) 11:56:36 145.865
HO-68 25 Jun 11:48:12 11:55:11 55° 308° (NW) 12:02:09 435.675
Cosmos 2491 25 Jun 11:48:36 11:57:14 57° 61° (ENE) 12:05:47 435.465 / 435.565
QB50P1 25 Jun 11:48:59 11:53:11 88° 244° (WSW) 11:57:27 145.935-145.965
POPSAT HIP 1 25 Jun 11:51:50 11:56:03 85° 252° (WSW) 12:00:19 437.405
YUBILEINY 25 Jun 11:53:32 11:59:07 19° 62° (ENE) 12:04:46 435.215
ZACube-1 25 Jun 11:53:54 11:58:21 70° 292° (WNW) 12:02:52 437.345
PCSat 25 Jun 11:54:10 11:59:31 59° 226° (SW) 12:04:51 145.827
ITAMSAT 1 25 Jun 11:56:05 11:58:51 15° 25° (NNE) 12:01:38 435.822/435.867
Cubesat XI-IV 25 Jun 11:58:12 12:01:12 15° 334° (NNW) 12:04:13 437.490
HUMSAT D 25 Jun 12:03:12 12:07:29 55° 102° (ESE) 12:11:44 437.325/437.525
QB50P2 25 Jun 12:03:16 12:07:28 68° 255° (WSW) 12:11:43 145.880/145.840
POLYITAN 1 25 Jun 12:05:54 12:10:05 66° 255° (WSW) 12:14:19 437.675
UWE-3 25 Jun 12:06:42 12:10:57 46° 299° (WNW) 12:15:20 435.000/436.395/437.385
AO-7 25 Jun 12:09:54 12:16:50 31° 15° (NNE) 12:23:47 29.400- 29.500
VELOX 1 25 Jun 12:10:37 12:13:16 15° 84° (E) 12:15:53 145.980
DUCHIFAT 1 25 Jun 12:10:40 12:14:50 66° 255° (WSW) 12:19:02 145.980
JAS-2 25 Jun 12:10:54 12:18:13 63° 61° (ENE) 12:24:47 435.910
Oscar 11 25 Jun 12:11:16 12:15:32 51° 297° (WNW) 12:19:47 145.826/435.025
CUBEBUG 1 25 Jun 12:12:12 12:15:00 17° 85° (E) 12:17:48 437.445
FUNcube-1 25 Jun 12:13:38 12:18:00 54° 296° (WNW) 12:22:25 145.935
DANDE 25 Jun 12:14:17 12:21:49 37° 312° (NW) 12:28:25 436.750
O/OREOS (USA 219) 25 Jun 12:18:43 12:23:12 63° 42° (NE) 12:27:39 437.305
TIGRISAT 25 Jun 12:22:28 12:25:37 19° 274° (W) 12:28:50 435.000
UNISAT 6 25 Jun 12:26:38 12:29:36 18° 275° (W) 12:32:37 437.425
CINEMA 3 25 Jun 12:27:09 12:29:58 17° 316° (NW) 12:32:49 145.822/145.860
CUSAT 1 25 Jun 12:29:05 12:34:13 21° 322° (NW) 12:38:38 437.405
ESTCUBE 1 25 Jun 12:31:06 12:35:05 29° 93° (E) 12:39:01 437.505/2401.250
AAUSAT CUBESAT 2 25 Jun 12:32:00 12:35:20 23° 310° (NW) 12:38:40 437.432
CUTE-I 25 Jun 12:33:57 12:36:11 13° 343° (NNW) 12:38:25 437.470
BEESAT 3 25 Jun 12:36:31 12:39:54 27° 230° (SW) 12:43:17 437.485
AUBIESAT-1 25 Jun 12:42:29 12:45:49 37° 309° (NW) 12:49:22 437.475
CANX-2 25 Jun 12:47:10 12:49:16 14° 322° (NW) 12:51:23 2200.000
CUBEBUG 2 25 Jun 12:48:22 12:51:53 23° 311° (NW) 12:55:27 437.445
AISAT 25 Jun 12:50:22 12:54:14 29° 93° (E) 12:58:04 437.250
NOAA 18 25 Jun 13:02:43 13:05:00 13° 351° (N) 13:07:18 137.9125
COMPASS 1 25 Jun 13:02:57 13:05:25 15° 319° (NW) 13:07:52 437.405
Gurwin Techsat 1B 25 Jun 13:05:27 13:10:22 39° 53° (NE) 13:15:17 435.225
BEESAT 2 25 Jun 13:07:09 13:10:29 25° 231° (SW) 13:13:49 435.950
CUTE 1.7 + AOD 2 25 Jun 13:08:18 13:09:48 12° 326° (NW) 13:11:18 437.475
UKube-1 25 Jun 13:10:24 13:14:09 28° 93° (E) 13:17:52 .
DELFI C3 25 Jun 13:13:51 13:17:24 30° 304° (NW) 13:20:54 145.870
NOAA 15 25 Jun 13:14:22 13:15:25 11° 357° (N) 13:16:27 137.62
50 SAT 25 Jun 13:15:49 13:19:26 43° 100° (E) 13:22:59 437.505
Oscar 19 25 Jun 13:17:07 13:22:15 69° 65° (ENE) 13:27:23 437.125/150
AIST 2 25 Jun 13:18:19 13:22:30 84° 209° (SSW) 13:26:41 435.215
TISAT 1 25 Jun 13:18:44 13:19:40 11° 79° (E) 13:20:37 437.305
SPROUT 25 Jun 13:18:57 13:22:35 26° 92° (E) 13:26:12 437.525
SEEDS 25 Jun 13:18:58 13:20:28 12° 325° (NW) 13:21:58 437.485
M-CUBED/EXP-1 PRIME 25 Jun 13:19:04 13:21:47 21° 318° (NW) 13:24:37 437.505
Cosmos 2504 25 Jun 13:22:17 13:28:01 21° 64° (ENE) 13:33:56 435.465 / 435.565
BUGSAT 1 25 Jun 13:22:37 13:26:16 32° 264° (W) 13:29:55 437.445
DX 1 25 Jun 13:23:19 13:27:24 39° 98° (E) 13:31:29 434.975-435.025
NANOSAT C BR1 25 Jun 13:25:36 13:28:43 20° 272° (W) 13:31:51 145.865
QB50P1 25 Jun 13:26:35 13:29:37 19° 273° (W) 13:32:41 145.935-145.965
POPSAT HIP 1 25 Jun 13:29:32 13:32:30 18° 273° (W) 13:35:30 437.405
ZACube-1 25 Jun 13:30:46 13:34:04 21° 314° (NW) 13:37:23 437.345
ITAMSAT 1 25 Jun 13:32:26 13:37:01 32° 49° (NE) 13:41:39 435.822/435.867
HO-68 25 Jun 13:35:57 13:41:45 27° 333° (NNW) 13:47:33 435.675
Cubesat XI-IV 25 Jun 13:38:05 13:39:23 11° 359° (N) 13:40:41 437.490
PCSat 25 Jun 13:38:12 13:42:02 20° 248° (WSW) 13:45:51 145.827
HUMSAT D 25 Jun 13:39:05 13:43:00 35° 303° (WNW) 13:46:55 437.325/437.525
QB50P2 25 Jun 13:41:40 13:44:07 15° 277° (W) 13:46:35 145.880/145.840
UWE-3 25 Jun 13:44:00 13:46:35 15° 320° (NW) 13:49:13 435.000/436.395/437.385
POLYITAN 1 25 Jun 13:44:21 13:46:45 15° 277° (W) 13:49:09 437.675
RS-15 25 Jun 13:45:21 13:56:08 47° 119° (ESE) 14:07:25 29.354- 29.394
YUBILEINY 25 Jun 13:45:36 13:53:57 53° 89° (E) 14:02:22 435.215
Cosmos 2491 25 Jun 13:45:48 13:54:19 60° 268° (W) 14:02:47 435.465 / 435.565
VELOX 1 25 Jun 13:46:11 13:50:36 67° 105° (ESE) 13:54:59 145.980
CUBEBUG 1 25 Jun 13:47:43 13:52:05 74° 106° (ESE) 13:56:24 437.445
Oscar 11 25 Jun 13:48:10 13:50:53 16° 319° (NW) 13:53:36 145.826/435.025
DUCHIFAT 1 25 Jun 13:49:01 13:51:22 15° 277° (W) 13:53:44 145.980
FUNcube-1 25 Jun 13:50:36 13:53:30 17° 317° (NW) 13:56:25 145.935
JAS-2 25 Jun 13:56:15 14:03:30 50° 262° (W) 14:10:05 435.910
O/OREOS (USA 219) 25 Jun 13:58:20 14:02:29 37° 245° (WSW) 14:06:36 437.305
ISS 25 Jun 13:58:54 14:00:29 13° 176° (S) 14:02:04 145.825
AO-7 25 Jun 14:00:14 14:08:08 49° 42° (NE) 14:16:04 29.400- 29.500
DANDE 25 Jun 14:01:12 14:06:48 20° 337° (NNW) 14:11:46 436.750
ESTCUBE 1 25 Jun 14:07:45 14:12:17 66° 294° (WNW) 14:16:45 437.505/2401.250
CUTE-I 25 Jun 14:12:44 14:14:15 11° 8° (N) 14:15:47 437.470
CUSAT 1 25 Jun 14:16:10 14:18:40 12° 348° (NNW) 14:20:57 437.405
AUBIESAT-1 25 Jun 14:17:55 14:19:37 13° 329° (NNW) 14:21:23 437.475
AISAT 25 Jun 14:26:43 14:31:06 65° 294° (WNW) 14:35:26 437.250
NOAA 18 25 Jun 14:41:03 14:43:43 14° 16° (NNE) 14:46:24 137.9125
Gurwin Techsat 1B 25 Jun 14:44:52 14:50:10 65° 255° (WSW) 14:55:31 435.225
UKube-1 25 Jun 14:46:17 14:50:35 66° 294° (WNW) 14:54:52 .
HORYU 2 25 Jun 14:47:58 14:50:43 16° 39° (NE) 14:53:31 437.375
50 SAT 25 Jun 14:49:40 14:53:06 35° 301° (WNW) 14:56:30 437.505
DELFI C3 25 Jun 14:50:43 14:51:10 10° 326° (NW) 14:51:38 145.870
NOAA 15 25 Jun 14:50:46 14:53:16 14° 21° (NNE) 14:55:45 137.62
TISAT 1 25 Jun 14:52:18 14:56:24 48° 101° (E) 15:00:29 437.305
SPROUT 25 Jun 14:54:41 14:58:57 68° 294° (WNW) 15:03:13 437.525
AIST 2 25 Jun 14:57:01 15:00:40 30° 229° (SW) 15:04:18 435.215
Oscar 19 25 Jun 14:57:23 15:02:01 32° 267° (W) 15:06:39 437.125/150
DX 1 25 Jun 14:59:34 15:03:45 48° 299° (WNW) 15:07:56 434.975-435.025
ITAMSAT 1 25 Jun 15:10:55 15:16:09 83° 252° (WSW) 15:21:27 435.822/435.867
Cosmos 2504 25 Jun 15:11:31 15:19:32 56° 90° (E) 15:28:03 435.465 / 435.565
SWISSCUBE 25 Jun 15:14:09 15:18:14 27° 91° (E) 15:22:17 437.505
Cubesat XI-IV 25 Jun 15:14:44 15:17:31 14° 23° (NNE) 15:20:19 437.490
HUMSAT D 25 Jun 15:15:53 15:17:36 12° 325° (NW) 15:19:19 437.325/437.525
BRITE-PL 25 Jun 15:22:25 15:23:42 11° 31° (NNE) 15:24:58 437.365/2234.400
HO-68 25 Jun 15:22:34 15:27:33 21° 359° (N) 15:32:32 435.675
VELOX 1 25 Jun 15:22:59 15:26:51 31° 307° (NW) 15:30:44 145.980
CUBEBUG 1 25 Jun 15:24:23 15:28:05 28° 308° (NW) 15:31:46 437.445
ISS 25 Jun 15:35:07 15:35:56 11° 196° (SSW) 15:36:45 145.825
ITUPSAT 1 25 Jun 15:38:25 15:42:51 34° 95° (E) 15:47:15 437.325
BEESAT 25 Jun 15:39:45 15:44:12 35° 96° (E) 15:48:36 436.000
YUBILEINY 25 Jun 15:42:04 15:50:44 64° 295° (WNW) 15:59:32 435.215
Cosmos 2491 25 Jun 15:43:19 15:49:26 22° 294° (WNW) 15:55:32 435.465 / 435.565
ESTCUBE 1 25 Jun 15:45:09 15:48:27 20° 316° (NW) 15:51:45 437.505/2401.250
JAS-2 25 Jun 15:45:38 15:50:08 17° 285° (WNW) 15:54:24 435.910
DANDE 25 Jun 15:48:03 15:52:32 17° 4° (N) 15:56:31 436.750
CUTE-I 25 Jun 15:48:59 15:52:30 18° 32° (NNE) 15:56:02 437.470
KKS-1 25 Jun 15:50:10 15:50:48 10° 78° (ENE) 15:51:25 437.445
AO-7 25 Jun 15:52:15 16:00:39 79° 247° (WSW) 16:09:06 29.400- 29.500
RS-15 25 Jun 15:55:49 16:07:38 84° 148° (SSE) 16:19:59 29.354- 29.394
CUSAT 1 25 Jun 16:00:51 16:03:26 13° 16° (NNE) 16:05:46 437.405
AISAT 25 Jun 16:03:49 16:06:56 19° 316° (NW) 16:10:04 437.250
GOMX 1 25 Jun 16:13:27 16:14:55 12° 35° (NE) 16:16:24 467.674
LilacSat-2 25 Jun 16:14:50 16:16:05 11° 39° (NE) 16:17:20 437.200
NOAA 18 25 Jun 16:18:25 16:22:50 25° 40° (NE) 16:27:17 137.9125
HORYU 2 25 Jun 16:22:10 16:26:27 48° 60° (ENE) 16:30:47 437.375
UKube-1 25 Jun 16:22:56 16:26:01 19° 316° (NW) 16:29:06 .
50 SAT 25 Jun 16:24:59 16:25:53 11° 322° (NW) 16:26:46 437.505
NOAA 15 25 Jun 16:27:12 16:31:38 28° 45° (NE) 16:36:03 137.62
Gurwin Techsat 1B 25 Jun 16:27:37 16:31:12 18° 278° (W) 16:34:47 435.225
TISAT 1 25 Jun 16:28:09 16:32:02 38° 302° (WNW) 16:35:56 437.305
STARS 25 Jun 16:30:44 16:32:43 13° 81° (E) 16:34:41 437.465
SPROUT 25 Jun 16:31:15 16:34:19 19° 314° (NW) 16:37:23 437.525
DX 1 25 Jun 16:36:32 16:39:08 16° 321° (NW) 16:41:43 434.975-435.025
MOZHAYETS 4 25 Jun 16:49:37 16:53:35 27° 90° (E) 16:57:32
Cubesat XI-IV 25 Jun 16:51:36 16:56:13 30° 47° (NE) 17:00:51 437.490
SWISSCUBE 25 Jun 16:51:43 16:56:34 79° 292° (WNW) 17:01:23 437.505
ITAMSAT 1 25 Jun 16:52:21 16:56:26 23° 273° (W) 17:00:33 435.822/435.867
BRITE-PL 25 Jun 16:56:54 17:01:03 29° 54° (NE) 17:04:57 437.365/2234.400
VELOX 1 25 Jun 17:00:38 17:02:13 12° 329° (NNW) 17:03:48 145.980
CUBEBUG 1 25 Jun 17:02:15 17:03:12 11° 330° (NNW) 17:04:09 437.445
Cosmos 2504 25 Jun 17:04:44 17:13:02 62° 297° (WNW) 17:21:49 435.465 / 435.565
HO-68 25 Jun 17:07:38 17:13:18 26° 25° (NNE) 17:18:58 435.675
ITUPSAT 1 25 Jun 17:16:14 17:21:01 61° 296° (WNW) 17:25:46 437.325
BEESAT 25 Jun 17:17:31 17:22:16 59° 297° (WNW) 17:26:59 436.000
KKS-1 25 Jun 17:24:16 17:28:33 44° 100° (E) 17:32:50 437.445
CUTE-I 25 Jun 17:26:26 17:31:29 43° 55° (NE) 17:36:33 437.470
DOVE 4 25 Jun 17:29:12 17:31:58 17° 45° (NE) 17:34:44 437.250
CANX-2 25 Jun 17:30:14 17:31:24 11° 32° (NNE) 17:32:34 2200.000
DANDE 25 Jun 17:32:35 17:38:06 24° 32° (NNE) 17:42:38 436.750
YUBILEINY 25 Jun 17:42:04 17:49:33 30° 324° (NW) 17:57:06 435.215
SO-50 25 Jun 17:42:51 17:46:14 19° 120° (ESE) 17:49:35 436.795
CUSAT 1 25 Jun 17:43:10 17:47:40 26° 44° (NE) 17:51:15 437.405
LilacSat-2 25 Jun 17:45:58 17:49:29 37° 61° (ENE) 17:53:04 437.200
AO-7 25 Jun 17:47:37 17:54:46 30° 272° (W) 18:01:59 29.400- 29.500
GOMX 1 25 Jun 17:48:01 17:52:01 33° 57° (ENE) 17:55:53 467.674
GONETS M04 25 Jun 17:49:30 17:55:42 23° 67° (ENE) 18:01:53
CUTE 1.7 + AOD 2 25 Jun 17:50:01 17:51:53 13° 36° (NE) 17:53:45 437.475
NOAA 18 25 Jun 17:57:22 18:02:48 68° 63° (ENE) 18:08:19 137.9125
HORYU 2 25 Jun 17:58:59 18:03:10 40° 262° (W) 18:07:24 437.375
SEEDS 25 Jun 18:00:27 18:02:08 12° 36° (NE) 18:03:50 437.485
M-CUBED/EXP-1 PRIME 25 Jun 18:00:57 18:01:43 11° 26° (NNE) 18:02:30 437.505
TISAT 1 25 Jun 18:04:52 18:06:46 13° 324° (NW) 18:08:39 437.305
NOAA 15 25 Jun 18:05:35 18:10:53 82° 68° (ENE) 18:16:13 137.62
STARS 25 Jun 18:05:45 18:10:05 55° 103° (ESE) 18:14:25 437.465
CUBESAT XI-V 25 Jun 18:08:02 18:11:46 23° 88° (E) 18:15:27 437.345
Cosmos 2499 25 Jun 18:08:34 18:14:25 21° 64° (ENE) 18:20:25 435.465 / 435.565
RS-15 25 Jun 18:08:40 18:20:44 80° 0° (N) 18:33:12 29.354- 29.394
AIST 1 25 Jun 18:16:32 18:20:36 41° 94° (E) 18:24:39
MOZHAYETS 4 25 Jun 18:26:34 18:31:15 75° 292° (WNW) 18:35:54
UWE-3 25 Jun 18:29:31 18:30:33 11° 31° (NNE) 18:31:35 435.000/436.395/437.385
SWISSCUBE 25 Jun 18:29:58 18:33:50 24° 315° (NW) 18:37:41 437.505
Cubesat XI-IV 25 Jun 18:30:28 18:35:51 90° 72° (ENE) 18:41:18 437.490
Oscar 11 25 Jun 18:33:38 18:33:55 10° 29° (NNE) 18:34:12 145.826/435.025
BRITE-PL 25 Jun 18:34:21 18:39:18 78° 253° (WSW) 18:43:53 437.365/2234.400
AAUSAT CUBESAT 2 25 Jun 18:48:09 18:50:39 15° 42° (NE) 18:53:08 437.432
CINEMA 3 25 Jun 18:48:34 18:51:56 24° 51° (NE) 18:55:22 145.822/145.860
HO-68 25 Jun 18:52:55 18:59:45 50° 49° (NE) 19:06:38 435.675
ITUPSAT 1 25 Jun 18:54:36 18:58:08 21° 319° (NW) 19:01:39 437.325
BEESAT 25 Jun 18:55:52 18:59:19 20° 319° (NW) 19:02:46 436.000
AUBIESAT-1 25 Jun 18:56:58 18:59:16 18° 38° (NE) 19:01:38 437.475
KKS-1 25 Jun 19:00:58 19:05:12 44° 301° (WNW) 19:09:25 437.445
Cosmos 2504 25 Jun 19:01:13 19:08:28 29° 325° (NW) 19:16:01 435.465 / 435.565
CANX-2 25 Jun 19:02:22 19:06:07 30° 55° (NE) 19:09:54 2200.000
DOVE 4 25 Jun 19:04:52 19:09:05 62° 66° (ENE) 19:13:13 437.250
CUTE-I 25 Jun 19:06:11 19:11:29 59° 257° (WSW) 19:16:50 437.470
CUBEBUG 2 25 Jun 19:08:48 19:11:43 18° 44° (NE) 19:14:43 437.445
DANDE 25 Jun 19:15:56 19:22:36 57° 60° (ENE) 19:27:35 436.750
COMPASS 1 25 Jun 19:17:37 19:21:01 24° 51° (NE) 19:24:27 437.405
LilacSat-2 25 Jun 19:20:14 19:23:50 41° 262° (W) 19:27:30 437.200
SO-50 25 Jun 19:21:10 19:25:56 54° 142° (SE) 19:30:39 436.795
CUTE 1.7 + AOD 2 25 Jun 19:22:46 19:26:43 36° 58° (ENE) 19:30:42 437.475
CUSAT 1 25 Jun 19:25:23 19:30:34 82° 255° (WSW) 19:34:25 437.405
GOMX 1 25 Jun 19:25:35 19:30:03 57° 258° (WSW) 19:34:18 467.674
DELFI C3 25 Jun 19:29:15 19:30:23 11° 36° (NE) 19:31:30 145.870
M-CUBED/EXP-1 PRIME 25 Jun 19:32:33 19:35:27 29° 48° (NE) 19:38:25 437.505
SEEDS 25 Jun 19:32:56 19:36:49 35° 57° (ENE) 19:40:43 437.485
NOAA 18 25 Jun 19:38:53 19:43:54 36° 265° (W) 19:48:59 137.9125
STARS 25 Jun 19:42:21 19:46:23 36° 304° (WNW) 19:50:24 437.465
GONETS M04 25 Jun 19:42:21 19:50:51 61° 93° (E) 19:59:22
YUBILEINY 25 Jun 19:43:41 19:49:59 21° 356° (N) 19:56:18 435.215
CUBESAT XI-V 25 Jun 19:45:04 19:49:47 86° 288° (WNW) 19:54:25 437.345
STRAND 1 25 Jun 19:45:42 19:49:27 20° 84° (E) 19:53:10 437.568
NOAA 15 25 Jun 19:46:45 19:51:17 28° 269° (W) 19:55:50 137.62
ZACube-1 25 Jun 19:49:21 19:52:32 21° 46° (NE) 19:55:46 437.345
AIST 1 25 Jun 19:54:08 19:58:16 42° 296° (WNW) 20:02:23
HUMSAT D 25 Jun 19:57:27 19:59:04 12° 35° (NE) 20:00:41 437.325/437.525
Cosmos 2499 25 Jun 19:57:30 20:05:41 55° 90° (E) 20:14:16 435.465 / 435.565
UWE-3 25 Jun 20:02:10 20:05:50 29° 53° (NE) 20:09:35 435.000/436.395/437.385
MOZHAYETS 4 25 Jun 20:04:15 20:07:52 23° 314° (NW) 20:11:28
Oscar 11 25 Jun 20:05:11 20:08:49 26° 51° (NE) 20:12:27 145.826/435.025
FUNcube-1 25 Jun 20:08:20 20:11:49 25° 50° (NE) 20:15:23 145.935
SWISSCUBE 25 Jun 20:08:52 20:10:15 11° 337° (NNW) 20:11:36 437.505
Cubesat XI-IV 25 Jun 20:12:13 20:16:39 26° 271° (W) 20:21:08 437.490
BRITE-PL 25 Jun 20:15:03 20:18:31 19° 274° (W) 20:21:50 437.365/2234.400
AAUSAT CUBESAT 2 25 Jun 20:21:17 20:25:21 50° 64° (ENE) 20:29:28 437.432
RS-15 25 Jun 20:21:39 20:33:51 84° 211° (SSW) 20:46:15 29.354- 29.394
CINEMA 3 25 Jun 20:24:34 20:28:44 82° 253° (WSW) 20:32:59 145.822/145.860
AUBIESAT-1 25 Jun 20:30:01 20:33:18 70° 62° (ENE) 20:36:44 437.475
ESTCUBE 1 25 Jun 20:32:47 20:33:38 10° 26° (NNE) 20:34:28 437.505/2401.250
ITUPSAT 1 25 Jun 20:34:15 20:34:27 10° 342° (NNW) 20:34:39 437.325
CANX-2 25 Jun 20:37:28 20:41:46 67° 256° (WSW) 20:46:05 2200.000
KKS-1 25 Jun 20:38:20 20:40:53 15° 323° (NW) 20:43:26 437.445
HO-68 25 Jun 20:40:15 20:47:24 67° 253° (WSW) 20:54:37 435.675
DOVE 4 25 Jun 20:43:31 20:47:11 27° 268° (W) 20:50:47 437.250
CUBEBUG 2 25 Jun 20:43:31 20:47:41 64° 66° (ENE) 20:51:59 437.445
CUTE-I 25 Jun 20:49:26 20:52:43 16° 280° (W) 20:56:02 437.470
AISAT 25 Jun 20:50:51 20:51:12 10° 27° (NNE) 20:51:32 437.250
COMPASS 1 25 Jun 20:51:57 20:56:12 87° 254° (WSW) 21:00:29 437.405
CUTE 1.7 + AOD 2 25 Jun 20:58:18 21:02:30 52° 259° (W) 21:06:45 437.475
Cosmos 2504 25 Jun 20:59:11 21:05:25 21° 356° (N) 21:11:47 435.465 / 435.565
DANDE 25 Jun 20:59:12 21:05:19 43° 269° (W) 21:09:58 436.750
DELFI C3 25 Jun 21:00:36 21:04:14 33° 57° (ENE) 21:07:53 145.870
SO-50 25 Jun 21:01:31 21:06:25 78° 344° (NNW) 21:11:13 436.795
PRISM 25 Jun 21:02:49 21:05:13 15° 85° (E) 21:07:37 437.425
M-CUBED/EXP-1 PRIME 25 Jun 21:06:47 21:09:58 48° 250° (WSW) 21:13:14 437.505
GOMX 1 25 Jun 21:07:00 21:09:06 13° 279° (W) 21:11:10 467.674
SEEDS 25 Jun 21:08:14 21:12:26 54° 259° (WSW) 21:16:40 437.485
CUSAT 1 25 Jun 21:08:29 21:11:35 17° 283° (WNW) 21:14:15 437.405
STARS 25 Jun 21:19:41 21:21:43 13° 326° (NW) 21:23:47 437.465
DX 1 25 Jun 21:20:54 21:22:31 12° 31° (NNE) 21:24:08 434.975-435.025
CUBESAT XI-V 25 Jun 21:22:54 21:26:42 25° 312° (NW) 21:30:27 437.345
ZACube-1 25 Jun 21:24:00 21:28:14 74° 69° (ENE) 21:32:37 437.345
STRAND 1 25 Jun 21:24:20 21:29:33 73° 107° (ESE) 21:34:43 437.568
HUMSAT D 25 Jun 21:29:51 21:33:40 34° 57° (ENE) 21:37:31 437.325/437.525
AIST 1 25 Jun 21:35:01 21:37:04 13° 320° (NW) 21:39:06
UWE-3 25 Jun 21:37:50 21:42:02 69° 255° (WSW) 21:46:24 435.000/436.395/437.385
GONETS M04 25 Jun 21:39:27 21:47:58 56° 299° (WNW) 21:56:33
Oscar 11 25 Jun 21:40:13 21:44:35 82° 252° (WSW) 21:49:00 145.826/435.025
FUNcube-1 25 Jun 21:43:25 21:47:41 85° 255° (WSW) 21:52:04 145.935
YUBILEINY 25 Jun 21:43:26 21:50:37 27° 29° (NNE) 21:57:49 435.215
VELOX 1 25 Jun 21:43:39 21:46:22 16° 39° (NE) 21:49:05 145.980
CUBEBUG 1 25 Jun 21:44:07 21:46:47 16° 40° (NE) 21:49:27 437.445
Cosmos 2499 25 Jun 21:50:25 21:58:53 63° 296° (WNW) 22:07:46 435.465 / 435.565
AAUSAT CUBESAT 2 25 Jun 21:57:10 22:01:02 35° 265° (W) 22:04:56 437.432
CINEMA 3 25 Jun 22:03:49 22:06:38 17° 275° (W) 22:09:28 145.822/145.860
ESTCUBE 1 25 Jun 22:05:25 22:09:08 25° 49° (NE) 22:12:53 437.505/2401.250
AUBIESAT-1 25 Jun 22:05:48 22:08:16 19° 261° (W) 22:10:47 437.475
CANX-2 25 Jun 22:15:57 22:18:29 15° 278° (W) 22:21:02 2200.000
CUBEBUG 2 25 Jun 22:21:05 22:24:43 27° 269° (W) 22:28:27 437.445
AISAT 25 Jun 22:22:49 22:26:25 25° 49° (NE) 22:30:01 437.250
TIGRISAT 25 Jun 22:25:39 22:27:21 12° 78° (ENE) 22:29:04 435.000
UNISAT 6 25 Jun 22:29:20 22:31:31 13° 80° (E) 22:33:42 437.425
COMPASS 1 25 Jun 22:29:21 22:32:24 19° 274° (W) 22:35:29 437.405
HO-68 25 Jun 22:31:03 22:36:32 23° 277° (W) 22:42:05 435.675
50 SAT 25 Jun 22:31:16 22:34:13 23° 53° (NE) 22:37:12 437.505
RS-15 25 Jun 22:34:05 22:45:25 48° 240° (WSW) 22:56:51 29.354- 29.394
DELFI C3 25 Jun 22:35:01 22:38:59 53° 258° (WSW) 22:43:00 145.870
PRISM 25 Jun 22:37:12 22:41:20 70° 106° (ESE) 22:45:25 437.425
CUTE 1.7 + AOD 2 25 Jun 22:37:46 22:39:23 12° 281° (W) 22:41:01 437.475
UKube-1 25 Jun 22:40:22 22:43:51 24° 48° (NE) 22:47:20 .
SO-50 25 Jun 22:42:23 22:47:14 71° 7° (N) 22:51:59 436.795
DANDE 25 Jun 22:43:54 22:46:13 12° 296° (WNW) 22:48:21 436.750
TISAT 1 25 Jun 22:47:02 22:48:27 12° 34° (NNE) 22:49:52 437.305
SEEDS 25 Jun 22:47:22 22:49:08 12° 280° (W) 22:50:55 437.485
SPROUT 25 Jun 22:48:23 22:51:34 21° 47° (NE) 22:54:45 437.525
DX 1 25 Jun 22:53:46 22:57:37 32° 54° (NE) 23:01:29 434.975-435.025
Cosmos 2504 25 Jun 22:55:25 23:02:33 26° 28° (NNE) 23:09:45 435.465 / 435.565
ZACube-1 25 Jun 23:01:33 23:05:02 24° 271° (W) 23:08:38 437.345
CUBESAT XI-V 25 Jun 23:01:51 23:02:43 10° 334° (NNW) 23:03:34 437.345
STRAND 1 25 Jun 23:03:49 23:08:28 35° 309° (NW) 23:13:07 437.568
HUMSAT D 25 Jun 23:05:03 23:09:10 55° 258° (WSW) 23:13:23 437.325/437.525
ANTELSAT 25 Jun 23:08:24 23:12:05 23° 89° (E) 23:15:48 437.575/2403.000
AO-85 25 Jun 23:13:09 23:16:55 20° 119° (ESE) 23:20:33 145.980
Cosmos 2491 25 Jun 23:13:55 23:17:58 14° 55° (NE) 23:22:02 435.465 / 435.565
UWE-3 25 Jun 23:16:49 23:19:23 15° 278° (W) 23:21:59 435.000/436.395/437.385
VELOX 1 25 Jun 23:17:46 23:22:02 49° 61° (ENE) 23:26:19 145.980
CUBEBUG 1 25 Jun 23:18:04 23:22:17 50° 62° (ENE) 23:26:31 437.445
Oscar 11 25 Jun 23:18:21 23:21:26 19° 275° (W) 23:24:32 145.826/435.025
SWISSCUBE 25 Jun 23:20:14 23:22:03 12° 26° (NNE) 23:23:54 437.505
FUNcube-1 25 Jun 23:21:34 23:24:38 19° 274° (W) 23:27:45 145.935
QB50P2 25 Jun 23:38:45 23:40:14 12° 80° (E) 23:41:43 145.880/145.840
GONETS M04 25 Jun 23:39:55 23:47:05 27° 329° (NNW) 23:54:16
ESTCUBE 1 25 Jun 23:40:58 23:45:32 90° 15° (NNE) 23:50:07 437.505/2401.250
YUBILEINY 25 Jun 23:41:12 23:49:50 53° 59° (ENE) 23:58:28 435.215
POLYITAN 1 25 Jun 23:41:18 23:42:53 12° 80° (E) 23:44:27 437.675
ITUPSAT 1 25 Jun 23:43:57 23:46:24 14° 30° (NNE) 23:48:50 437.325
BEESAT 25 Jun 23:44:58 23:47:25 14° 31° (NNE) 23:49:53 436.000
DUCHIFAT 1 25 Jun 23:45:24 23:46:48 11° 80° (E) 23:48:11 145.980
Cosmos 2499 25 Jun 23:46:35 23:54:02 30° 324° (NW) 00:01:40 435.465 / 435.565
AISAT 25 Jun 23:58:04 00:02:31 88° 261° (W) 00:06:57 437.250
TIGRISAT 26 Jun 00:00:43 00:05:10 48° 100° (E) 00:09:40 435.000
50 SAT 26 Jun 00:03:50 00:07:35 78° 252° (WSW) 00:11:22 437.505
UNISAT 6 26 Jun 00:04:46 00:09:16 54° 101° (E) 00:13:50 437.425
PRISM 26 Jun 00:12:52 00:16:23 28° 307° (NW) 00:19:53 437.425
DELFI C3 26 Jun 00:13:22 00:14:48 12° 280° (W) 00:16:14 145.870
UKube-1 26 Jun 00:15:09 00:19:29 89° 62° (ENE) 00:23:51 .
TISAT 1 26 Jun 00:19:21 00:23:05 33° 56° (NE) 00:26:50 437.305
SPROUT 26 Jun 00:22:44 00:26:59 76° 68° (ENE) 00:31:16 437.525
SO-50 26 Jun 00:23:04 00:27:52 70° 212° (SSW) 00:32:31 436.795
DX 1 26 Jun 00:29:18 00:33:38 64° 255° (WSW) 00:37:59 434.975-435.025
STRAND 1 26 Jun 00:43:35 00:46:26 15° 332° (NNW) 00:49:18 437.568
HUMSAT D 26 Jun 00:44:01 00:45:49 12° 280° (W) 00:47:36 437.325/437.525
ANTELSAT 26 Jun 00:44:46 00:49:21 85° 292° (WNW) 00:54:02 437.575/2403.000
RS-15 26 Jun 00:47:21 00:54:39 19° 268° (W) 01:01:59 29.354- 29.394
Cosmos 2504 26 Jun 00:49:48 00:58:26 50° 57° (ENE) 01:07:00 435.465 / 435.565
AO-85 26 Jun 00:51:28 00:56:39 54° 141° (SE) 01:01:32 145.980
BUGSAT 1 26 Jun 00:53:11 00:56:12 20° 89° (E) 00:59:13 437.445
MOZHAYETS 4 26 Jun 00:53:37 00:54:04 10° 24° (NNE) 00:54:32
JAS-2 26 Jun 00:54:30 00:58:46 19° 78° (ENE) 01:02:43 435.910
SWISSCUBE 26 Jun 00:54:31 00:58:34 28° 48° (NE) 01:02:38 437.505
VELOX 1 26 Jun 00:54:32 00:58:40 38° 263° (W) 01:02:49 145.980
CUBEBUG 1 26 Jun 00:54:44 00:58:46 36° 263° (W) 01:02:49 437.445
NANOSAT C BR1 26 Jun 00:57:20 01:01:17 37° 97° (E) 01:05:14 145.865
QB50P1 26 Jun 00:58:30 01:02:31 39° 98° (E) 01:06:30 145.935-145.965
POPSAT HIP 1 26 Jun 01:01:24 01:05:26 40° 98° (E) 01:09:28 437.405
Cosmos 2491 26 Jun 01:04:24 01:12:19 40° 82° (E) 01:20:13 435.465 / 435.565
QB50P2 26 Jun 01:12:54 01:17:05 51° 101° (ESE) 01:21:15 145.880/145.840
POLYITAN 1 26 Jun 01:15:31 01:19:42 52° 101° (ESE) 01:23:53 437.675
ITUPSAT 1 26 Jun 01:18:45 01:23:05 34° 53° (NE) 01:27:26 437.325
Oscar 19 26 Jun 01:19:13 01:20:51 11° 76° (ENE) 01:22:29 437.125/150
DUCHIFAT 1 26 Jun 01:19:23 01:23:31 50° 101° (E) 01:27:39 145.980
ESTCUBE 1 26 Jun 01:19:28 01:22:59 22° 272° (W) 01:26:30 437.505/2401.250
BEESAT 26 Jun 01:19:45 01:24:05 35° 53° (NE) 01:28:26 436.000
KKS-1 26 Jun 01:23:17 01:25:21 13° 33° (NNE) 01:27:26 437.445
AISAT 26 Jun 01:36:20 01:39:37 20° 272° (W) 01:42:56 437.250
TIGRISAT 26 Jun 01:37:35 01:41:52 42° 301° (WNW) 01:46:13 435.000
YUBILEINY 26 Jun 01:38:23 01:47:04 65° 266° (W) 01:55:47 435.215
50 SAT 26 Jun 01:39:44 01:41:56 15° 274° (W) 01:44:09 437.505
GONETS M04 26 Jun 01:41:29 01:47:39 21° 1° (N) 01:53:51
UNISAT 6 26 Jun 01:41:43 01:45:56 38° 302° (WNW) 01:50:14 437.425
Cosmos 2499 26 Jun 01:44:19 01:50:41 21° 355° (N) 01:57:05 435.465 / 435.565
PRISM 26 Jun 01:50:05 01:50:35 10° 330° (NNW) 01:51:04 437.425
UKube-1 26 Jun 01:52:54 01:56:09 21° 271° (W) 01:59:26 .
TISAT 1 26 Jun 01:54:30 01:58:37 57° 257° (WSW) 02:02:45 437.305
SPROUT 26 Jun 01:59:58 02:03:26 24° 270° (W) 02:06:55 437.525
STARS 26 Jun 02:03:13 02:05:34 14° 37° (NE) 02:07:57 437.465
